Time,TemperatureF,DewpointF,PressureIn,WindDirection,WindDirectionDegrees,WindSpeedMPH,WindSpeedGustMPH,Humidity,HourlyPrecipIn,Conditions,Clouds,dailyrainin,SoftwareType,DateUTC
2013-01-06 00:01:00,35.3,31.7,29.98,SSW,203,6.1,12.5,87,0.00,,,0.00,WUHU216HW,2013-01-06 06:01:00,
2013-01-06 00:06:00,35.3,31.7,29.98,SW,225,5.2,12.5,87,0.00,,,0.00,WUHU216HW,2013-01-06 06:06:00,
2013-01-06 00:11:00,35.3,31.7,29.97,SSW,203,5.2,6.1,87,0.00,,,0.00,WUHU216HW,2013-01-06 06:11:00,
2013-01-06 00:16:00,35.3,31.7,29.97,SSW,203,5.0,5.8,87,0.00,,,0.00,WUHU216HW,2013-01-06 06:16:00,
2013-01-06 00:21:00,35.3,31.7,29.97,SSW,203,5.8,5.8,87,0.00,,,0.00,WUHU216HW,2013-01-06 06:21:00,
2013-01-06 00:26:00,35.1,31.5,29.97,SSW,203,3.5,9.6,87,0.00,,,0.00,WUHU216HW,2013-01-06 06:26:00,
2013-01-06 00:31:00,35.1,31.5,29.97,SW,215,4.2,9.6,87,0.00,,,0.00,WUHU216HW,2013-01-06 06:31:00,
2013-01-06 00:36:00,35.3,31.7,29.97,South,180,5.2,8.2,87,0.00,,,0.00,WUHU216HW,2013-01-06 06:36:00,
2013-01-06 00:41:00,35.3,31.7,29.96,SSW,202,4.1,8.2,87,0.00,,,0.00,WUHU216HW,2013-01-06 06:41:00,
2013-01-06 00:46:00,35.3,31.4,29.97,SSW,202,4.0,8.2,86,0.00,,,0.00,WUHU216HW,2013-01-06 06:46:00,
2013-01-06 00:51:00,35.3,31.4,29.96,SW,225,4.4,6.1,86,0.00,,,0.00,WUHU216HW,2013-01-06 06:51:00,
2013-01-06 00:56:00,35.3,31.4,29.96,SSW,198,4.3,6.1,86,0.00,,,0.00,WUHU216HW,2013-01-06 06:56:00,
2013-01-06 01:01:00,35.3,31.4,29.96,SW,225,3.5,6.1,86,0.00,,,0.00,WUHU216HW,2013-01-06 07:01:00,
2013-01-06 01:06:00,35.3,31.4,29.96,SW,216,3.1,8.2,86,0.00,,,0.00,WUHU216HW,2013-01-06 07:06:00,
2013-01-06 01:11:00,35.3,31.4,29.96,SSE,158,6.1,8.2,86,0.00,,,0.00,WUHU216HW,2013-01-06 07:11:00,
2013-01-06 01:16:00,35.3,31.4,29.96,SSW,203,13.1,13.1,86,0.00,,,0.00,WUHU216HW,2013-01-06 07:16:00,
2013-01-06 01:21:00,35.3,31.4,29.96,SW,214,4.8,13.1,86,0.00,,,0.00,WUHU216HW,2013-01-06 07:21:00,
2013-01-06 01:26:00,35.3,31.4,29.96,SW,214,4.9,13.1,86,0.00,,,0.00,WUHU216HW,2013-01-06 07:26:00,
2013-01-06 01:31:00,35.5,31.3,29.96,SW,227,2.8,7.0,85,0.00,,,0.00,WUHU216HW,2013-01-06 07:31:00,
2013-01-06 01:36:00,35.5,31.3,29.96,SW,221,3.6,6.4,85,0.00,,,0.00,WUHU216HW,2013-01-06 07:36:00,
2013-01-06 01:41:00,35.5,31.3,29.95,SSW,209,5.0,8.2,85,0.00,,,0.00,WUHU216HW,2013-01-06 07:41:00,
2013-01-06 01:46:00,35.5,31.3,29.95,South,175,5.8,9.4,85,0.00,,,0.00,WUHU216HW,2013-01-06 07:46:00,
2013-01-06 01:51:00,35.6,31.5,29.95,SW,221,4.1,9.4,85,0.00,,,0.00,WUHU216HW,2013-01-06 07:51:00,
2013-01-06 01:56:00,35.6,31.2,29.95,SW,225,6.6,8.4,84,0.00,,,0.00,WUHU216HW,2013-01-06 07:56:00,
2013-01-06 02:01:00,35.6,31.2,29.95,SSW,203,3.3,7.8,84,0.00,,,0.00,WUHU216HW,2013-01-06 08:01:00,
2013-01-06 02:06:00,35.6,31.2,29.96,SW,230,3.8,7.0,84,0.00,,,0.00,WUHU216HW,2013-01-06 08:06:00,
2013-01-06 02:11:00,35.6,31.2,29.96,SSW,203,7.3,7.3,84,0.00,,,0.00,WUHU216HW,2013-01-06 08:11:00,
2013-01-06 02:16:00,35.6,31.2,29.96,SW,225,5.8,7.3,84,0.00,,,0.00,WUHU216HW,2013-01-06 08:16:00,
2013-01-06 02:21:00,35.8,31.7,29.95,SW,225,4.4,7.3,85,0.00,,,0.00,WUHU216HW,2013-01-06 08:21:00,
2013-01-06 02:26:00,35.6,31.2,29.95,SSW,201,5.1,8.2,84,0.00,,,0.00,WUHU216HW,2013-01-06 08:26:00,
2013-01-06 02:31:00,35.6,31.2,29.95,SW,233,4.2,8.2,84,0.00,,,0.00,WUHU216HW,2013-01-06 08:31:00,
2013-01-06 02:36:00,35.6,31.2,29.95,SW,215,4.2,6.1,84,0.00,,,0.00,WUHU216HW,2013-01-06 08:36:00,
2013-01-06 02:41:00,35.6,31.2,29.95,SW,214,5.0,6.1,84,0.00,,,0.00,WUHU216HW,2013-01-06 08:41:00,
2013-01-06 02:46:00,35.6,31.2,29.95,SW,226,3.2,6.1,84,0.00,,,0.00,WUHU216HW,2013-01-06 08:46:00,
2013-01-06 02:51:00,35.6,31.2,29.95,WSW,248,5.6,8.4,84,0.00,,,0.00,WUHU216HW,2013-01-06 08:51:00,
2013-01-06 02:56:00,35.6,31.2,29.95,WSW,248,4.0,8.4,84,0.00,,,0.00,WUHU216HW,2013-01-06 08:56:00,
2013-01-06 03:01:00,35.6,31.2,29.95,SSW,213,2.2,5.6,84,0.00,,,0.00,WUHU216HW,2013-01-06 09:01:00,
2013-01-06 03:06:00,35.6,31.2,29.94,SW,225,3.3,6.1,84,0.00,,,0.00,WUHU216HW,2013-01-06 09:06:00,
2013-01-06 03:11:00,35.6,31.5,29.94,SW,225,4.9,6.1,85,0.00,,,0.00,WUHU216HW,2013-01-06 09:11:00,
2013-01-06 03:16:00,35.6,31.2,29.94,SSW,197,4.3,6.1,84,0.00,,,0.00,WUHU216HW,2013-01-06 09:16:00,
2013-01-06 03:21:00,35.6,31.5,29.94,SW,221,3.7,6.1,85,0.00,,,0.00,WUHU216HW,2013-01-06 09:21:00,
2013-01-06 03:26:00,35.6,31.5,29.94,SW,217,3.2,5.6,85,0.00,,,0.00,WUHU216HW,2013-01-06 09:26:00,
2013-01-06 03:31:00,35.6,31.5,29.94,WSW,248,4.0,5.2,85,0.00,,,0.00,WUHU216HW,2013-01-06 09:31:00,
2013-01-06 03:36:00,35.6,31.5,29.94,SW,225,3.3,7.8,85,0.00,,,0.00,WUHU216HW,2013-01-06 09:36:00,
2013-01-06 03:41:00,35.6,31.5,29.94,SW,215,1.6,7.8,85,0.00,,,0.00,WUHU216HW,2013-01-06 09:41:00,
2013-01-06 03:46:00,35.5,31.3,29.94,SW,227,2.5,4.4,85,0.00,,,0.00,WUHU216HW,2013-01-06 09:46:00,
2013-01-06 03:51:00,35.5,31.3,29.94,SW,225,2.9,4.4,85,0.00,,,0.00,WUHU216HW,2013-01-06 09:51:00,
2013-01-06 03:56:00,35.5,31.3,29.94,SW,236,3.1,5.8,85,0.00,,,0.00,WUHU216HW,2013-01-06 09:56:00,
2013-01-06 04:01:00,35.5,31.3,29.93,WSW,248,2.9,6.1,85,0.00,,,0.00,WUHU216HW,2013-01-06 10:01:00,
2013-01-06 04:06:00,35.3,31.1,29.94,SW,215,2.9,6.1,85,0.00,,,0.00,WUHU216HW,2013-01-06 10:06:00,
2013-01-06 04:11:00,35.3,31.1,29.94,SW,225,3.5,3.8,85,0.00,,,0.00,WUHU216HW,2013-01-06 10:11:00,
2013-01-06 04:16:00,35.3,31.1,29.93,SW,230,2.6,4.0,85,0.00,,,0.00,WUHU216HW,2013-01-06 10:16:00,
2013-01-06 04:21:00,35.3,31.4,29.93,SW,222,3.2,4.4,86,0.00,,,0.00,WUHU216HW,2013-01-06 10:21:00,
2013-01-06 04:26:00,35.3,31.4,29.93,SW,225,3.3,4.4,86,0.00,,,0.00,WUHU216HW,2013-01-06 10:26:00,
2013-01-06 04:31:00,35.3,31.4,29.93,SW,225,2.1,4.7,86,0.00,,,0.00,WUHU216HW,2013-01-06 10:31:00,
2013-01-06 04:36:00,35.3,31.4,29.93,SSW,203,6.4,6.4,86,0.00,,,0.00,WUHU216HW,2013-01-06 10:36:00,
2013-01-06 04:41:00,35.3,31.4,29.93,WSW,248,7.0,7.0,86,0.00,,,0.00,WUHU216HW,2013-01-06 10:41:00,
2013-01-06 04:46:00,35.3,31.4,29.93,SW,225,3.8,7.0,86,0.00,,,0.00,WUHU216HW,2013-01-06 10:46:00,
2013-01-06 04:51:00,35.3,31.4,29.93,SSW,203,3.5,6.1,86,0.00,,,0.00,WUHU216HW,2013-01-06 10:51:00,
2013-01-06 04:56:00,35.3,31.4,29.92,SW,225,4.0,6.1,86,0.00,,,0.00,WUHU216HW,2013-01-06 10:56:00,
2013-01-06 05:01:00,35.3,31.4,29.92,SW,225,3.5,5.8,86,0.00,,,0.00,WUHU216HW,2013-01-06 11:01:00,
2013-01-06 05:06:00,35.3,31.4,29.93,SW,224,2.9,6.1,86,0.00,,,0.00,WUHU216HW,2013-01-06 11:06:00,
2013-01-06 05:11:00,35.1,31.2,29.93,SSW,212,2.8,6.1,86,0.00,,,0.00,WUHU216HW,2013-01-06 11:11:00,
2013-01-06 05:16:00,35.1,31.2,29.93,SW,225,2.3,4.4,86,0.00,,,0.00,WUHU216HW,2013-01-06 11:16:00,
2013-01-06 05:21:00,35.1,31.2,29.93,SW,217,2.1,3.5,86,0.00,,,0.00,WUHU216HW,2013-01-06 11:21:00,
2013-01-06 05:26:00,35.1,31.2,29.93,SW,225,3.0,3.5,86,0.00,,,0.00,WUHU216HW,2013-01-06 11:26:00,
2013-01-06 05:31:00,35.1,31.2,29.93,SSW,203,3.5,3.5,86,0.00,,,0.00,WUHU216HW,2013-01-06 11:31:00,
2013-01-06 05:36:00,35.1,31.2,29.93,SW,225,2.1,3.5,86,0.00,,,0.00,WUHU216HW,2013-01-06 11:36:00,
2013-01-06 05:41:00,35.1,31.2,29.93,SW,229,1.5,3.3,86,0.00,,,0.00,WUHU216HW,2013-01-06 11:41:00,
2013-01-06 05:46:00,34.9,31.1,29.93,WSW,248,4.7,4.7,86,0.00,,,0.00,WUHU216HW,2013-01-06 11:46:00,
2013-01-06 05:51:00,34.9,31.1,29.94,WSW,241,2.7,4.9,86,0.00,,,0.00,WUHU216HW,2013-01-06 11:51:00,
2013-01-06 05:56:00,35.1,31.2,29.94,West,270,6.1,9.9,86,0.00,,,0.00,WUHU216HW,2013-01-06 11:56:00,
2013-01-06 06:01:00,34.9,30.5,29.95,SW,225,10.5,16.0,84,0.00,,,0.00,WUHU216HW,2013-01-06 12:01:00,
2013-01-06 06:06:00,34.7,30.1,29.95,WSW,248,9.9,16.0,83,0.00,,,0.00,WUHU216HW,2013-01-06 12:06:00,
2013-01-06 06:11:00,34.2,29.5,29.96,South,180,4.9,13.6,83,0.00,,,0.00,WUHU216HW,2013-01-06 12:11:00,
2013-01-06 06:16:00,33.7,27.5,29.96,SSW,203,7.5,11.1,78,0.00,,,0.00,WUHU216HW,2013-01-06 12:16:00,
2013-01-06 06:21:00,32.8,26.6,29.97,SW,232,5.9,12.0,78,0.00,,,0.00,WUHU216HW,2013-01-06 12:21:00,
2013-01-06 06:26:00,32.2,26.2,29.97,West,264,8.3,12.0,78,0.00,,,0.00,WUHU216HW,2013-01-06 12:26:00,
2013-01-06 06:31:00,31.3,24.9,29.97,WSW,252,6.1,9.9,77,0.00,,,0.00,WUHU216HW,2013-01-06 12:31:00,
2013-01-06 06:36:00,30.8,24.4,29.98,WNW,293,14.3,16.0,77,0.00,,,0.00,WUHU216HW,2013-01-06 12:36:00,
2013-01-06 06:41:00,30.2,24.2,29.98,West,270,17.2,17.2,78,0.00,,,0.00,WUHU216HW,2013-01-06 12:41:00,
2013-01-06 06:46:00,29.9,23.9,29.98,WSW,248,5.8,17.2,78,0.00,,,0.00,WUHU216HW,2013-01-06 12:46:00,
2013-01-06 06:51:00,29.7,23.7,29.98,WSW,242,2.8,9.6,78,0.00,,,0.00,WUHU216HW,2013-01-06 12:51:00,
2013-01-06 06:56:00,29.5,23.8,29.98,WSW,258,3.8,9.6,79,0.00,,,0.00,WUHU216HW,2013-01-06 12:56:00,
2013-01-06 07:01:00,29.3,23.7,29.98,WNW,293,4.9,8.2,79,0.00,,,0.00,WUHU216HW,2013-01-06 13:01:00,
2013-01-06 07:06:00,29.2,23.5,29.98,WSW,248,5.6,6.1,79,0.00,,,0.00,WUHU216HW,2013-01-06 13:06:00,
2013-01-06 07:11:00,29.0,23.6,29.98,West,270,2.3,10.5,80,0.00,,,0.00,WUHU216HW,2013-01-06 13:11:00,
2013-01-06 07:16:00,28.8,23.4,29.99,WSW,248,3.5,10.5,80,0.00,,,0.00,WUHU216HW,2013-01-06 13:16:00,
2013-01-06 07:21:00,28.8,23.7,29.99,SW,225,2.4,3.5,81,0.00,,,0.00,WUHU216HW,2013-01-06 13:21:00,
2013-01-06 07:26:00,28.6,23.5,29.99,WSW,248,1.4,4.4,81,0.00,,,0.00,WUHU216HW,2013-01-06 13:26:00,
2013-01-06 07:31:00,28.4,23.3,29.99,West,260,5.1,8.2,81,0.00,,,0.00,WUHU216HW,2013-01-06 13:31:00,
2013-01-06 07:36:00,28.4,23.3,29.99,West,270,5.2,8.2,81,0.00,,,0.00,WUHU216HW,2013-01-06 13:36:00,
2013-01-06 07:41:00,28.4,23.6,29.99,West,261,4.1,5.2,82,0.00,,,0.00,WUHU216HW,2013-01-06 13:41:00,
2013-01-06 07:46:00,28.4,23.3,30.00,WNW,301,5.8,7.5,81,0.00,,,0.00,WUHU216HW,2013-01-06 13:46:00,
2013-01-06 07:51:00,28.3,23.1,30.00,West,270,2.2,7.8,81,0.00,,,0.00,WUHU216HW,2013-01-06 13:51:00,
2013-01-06 07:56:00,28.1,22.7,30.01,West,270,11.6,11.6,80,0.00,,,0.00,WUHU216HW,2013-01-06 13:56:00,
2013-01-06 08:01:00,27.7,22.3,30.01,SW,225,7.3,11.6,80,0.00,,,0.00,WUHU216HW,2013-01-06 14:01:00,
2013-01-06 08:06:00,27.5,22.1,30.01,WSW,258,8.6,11.6,80,0.00,,,0.00,WUHU216HW,2013-01-06 14:06:00,
2013-01-06 08:11:00,27.4,22.0,30.02,WSW,253,4.5,9.9,80,0.00,,,0.00,WUHU216HW,2013-01-06 14:11:00,
2013-01-06 08:16:00,27.0,21.6,30.02,SSW,203,5.2,8.4,80,0.00,,,0.00,WUHU216HW,2013-01-06 14:16:00,
2013-01-06 08:21:00,27.0,21.6,30.02,NNW,343,2.4,6.1,80,0.00,,,0.00,WUHU216HW,2013-01-06 14:21:00,
2013-01-06 08:26:00,27.0,21.9,30.02,North,0,2.9,6.1,81,0.00,,,0.00,WUHU216HW,2013-01-06 14:26:00,
2013-01-06 08:31:00,27.2,22.1,30.02,WSW,246,2.5,9.0,81,0.00,,,0.00,WUHU216HW,2013-01-06 14:31:00,
2013-01-06 08:36:00,27.2,22.1,30.02,South,180,1.4,9.0,81,0.00,,,0.00,WUHU216HW,2013-01-06 14:36:00,
2013-01-06 08:41:00,27.2,22.1,30.02,SW,225,3.3,8.2,81,0.00,,,0.00,WUHU216HW,2013-01-06 14:41:00,
2013-01-06 08:46:00,27.0,21.9,30.02,West,262,2.4,8.2,81,0.00,,,0.00,WUHU216HW,2013-01-06 14:46:00,
2013-01-06 08:51:00,27.2,22.1,30.02,West,267,2.6,5.2,81,0.00,,,0.00,WUHU216HW,2013-01-06 14:51:00,
2013-01-06 08:56:00,27.4,22.2,30.02,WSW,237,3.5,5.2,81,0.00,,,0.00,WUHU216HW,2013-01-06 14:56:00,
2013-01-06 09:01:00,27.4,22.2,30.03,West,259,2.5,7.0,81,0.00,,,0.00,WUHU216HW,2013-01-06 15:01:00,
2013-01-06 09:06:00,27.4,22.0,30.03,West,265,5.9,7.0,80,0.00,,,0.00,WUHU216HW,2013-01-06 15:06:00,
2013-01-06 09:11:00,27.2,21.8,30.03,West,270,4.2,6.1,80,0.00,,,0.00,WUHU216HW,2013-01-06 15:11:00,
2013-01-06 09:16:00,27.4,22.0,30.04,WNW,293,13.6,13.6,80,0.00,,,0.00,WUHU216HW,2013-01-06 15:16:00,
2013-01-06 09:21:00,27.4,21.7,30.04,WSW,248,8.4,13.6,79,0.00,,,0.00,WUHU216HW,2013-01-06 15:21:00,
2013-01-06 09:26:00,27.4,21.7,30.04,WSW,248,3.3,13.6,79,0.00,,,0.00,WUHU216HW,2013-01-06 15:26:00,
2013-01-06 09:31:00,27.4,22.0,30.05,WSW,237,1.7,12.0,80,0.00,,,0.00,WUHU216HW,2013-01-06 15:31:00,
2013-01-06 09:36:00,27.5,21.9,30.05,West,259,5.5,8.7,79,0.00,,,0.00,WUHU216HW,2013-01-06 15:36:00,
2013-01-06 09:41:00,27.5,21.9,30.05,WSW,248,7.8,8.7,79,0.00,,,0.00,WUHU216HW,2013-01-06 15:41:00,
2013-01-06 09:46:00,27.5,21.9,30.05,WNW,293,8.2,12.0,79,0.00,,,0.00,WUHU216HW,2013-01-06 15:46:00,
2013-01-06 09:51:00,27.5,21.9,30.06,West,270,7.0,12.0,79,0.00,,,0.00,WUHU216HW,2013-01-06 15:51:00,
2013-01-06 09:56:00,27.4,21.3,30.06,WNW,293,9.4,9.4,78,0.00,,,0.00,WUHU216HW,2013-01-06 15:56:00,
2013-01-06 10:01:00,27.5,21.5,30.06,West,270,9.0,11.6,78,0.00,,,0.00,WUHU216HW,2013-01-06 16:01:00,
2013-01-06 10:06:00,27.4,21.3,30.06,West,270,8.7,11.6,78,0.00,,,0.00,WUHU216HW,2013-01-06 16:06:00,
2013-01-06 10:11:00,27.5,21.5,30.07,West,270,9.9,9.9,78,0.00,,,0.00,WUHU216HW,2013-01-06 16:11:00,
2013-01-06 10:16:00,27.4,21.3,30.07,West,270,9.0,11.1,78,0.00,,,0.00,WUHU216HW,2013-01-06 16:16:00,
2013-01-06 10:21:00,27.4,21.7,30.07,SW,225,11.1,11.1,79,0.00,,,0.00,WUHU216HW,2013-01-06 16:21:00,
2013-01-06 10:26:00,27.4,21.3,30.07,WSW,248,3.3,11.1,78,0.00,,,0.00,WUHU216HW,2013-01-06 16:26:00,
2013-01-06 10:31:00,27.5,21.5,30.07,WSW,255,8.1,11.1,78,0.00,,,0.00,WUHU216HW,2013-01-06 16:31:00,
2013-01-06 10:36:00,27.5,21.3,30.07,WSW,248,7.0,9.0,77,0.00,,,0.00,WUHU216HW,2013-01-06 16:36:00,
2013-01-06 10:41:00,27.7,21.4,30.07,NW,315,3.3,7.0,77,0.00,,,0.00,WUHU216HW,2013-01-06 16:41:00,
2013-01-06 10:46:00,27.5,21.3,30.07,West,279,4.1,7.0,77,0.00,,,0.00,WUHU216HW,2013-01-06 16:46:00,
2013-01-06 10:51:00,27.7,21.7,30.07,WSW,241,2.3,5.2,78,0.00,,,0.00,WUHU216HW,2013-01-06 16:51:00,
2013-01-06 10:56:00,27.7,21.4,30.08,West,270,3.8,5.2,77,0.00,,,0.00,WUHU216HW,2013-01-06 16:56:00,
2013-01-06 11:01:00,27.9,21.6,30.07,SW,225,2.1,6.1,77,0.00,,,0.00,WUHU216HW,2013-01-06 17:01:00,
2013-01-06 11:06:00,28.1,21.8,30.07,WSW,253,6.4,7.0,77,0.00,,,0.00,WUHU216HW,2013-01-06 17:06:00,
2013-01-06 11:11:00,27.9,21.6,30.07,WSW,248,3.7,7.0,77,0.00,,,0.00,WUHU216HW,2013-01-06 17:11:00,
2013-01-06 11:16:00,28.1,21.4,30.07,West,270,6.1,7.0,76,0.00,,,0.00,WUHU216HW,2013-01-06 17:16:00,
2013-01-06 11:21:00,28.3,22.0,30.07,West,270,4.4,7.0,77,0.00,,,0.00,WUHU216HW,2013-01-06 17:21:00,
2013-01-06 11:26:00,28.3,21.3,30.07,West,261,6.1,11.1,75,0.00,,,0.00,WUHU216HW,2013-01-06 17:26:00,
2013-01-06 11:31:00,28.8,21.9,30.07,WNW,293,7.3,11.1,75,0.00,,,0.00,WUHU216HW,2013-01-06 17:31:00,
2013-01-06 11:36:00,29.5,22.9,30.07,West,267,7.7,8.7,76,0.00,,,0.00,WUHU216HW,2013-01-06 17:36:00,
2013-01-06 11:41:00,30.1,23.4,30.07,SW,225,6.4,9.9,76,0.00,,,0.00,WUHU216HW,2013-01-06 17:41:00,
2013-01-06 11:46:00,30.2,23.2,30.07,West,270,5.2,11.3,75,0.00,,,0.00,WUHU216HW,2013-01-06 17:46:00,
2013-01-06 11:51:00,30.6,23.0,30.07,West,276,7.0,11.3,73,0.00,,,0.00,WUHU216HW,2013-01-06 17:51:00,
2013-01-06 11:56:00,31.0,23.3,30.07,West,270,6.8,11.3,73,0.00,,,0.00,WUHU216HW,2013-01-06 17:56:00,
2013-01-06 12:01:00,31.3,23.7,30.07,WSW,248,4.9,9.0,73,0.00,,,0.00,WUHU216HW,2013-01-06 18:01:00,
2013-01-06 12:06:00,31.5,23.5,30.07,WNW,297,4.5,9.0,72,0.00,,,0.00,WUHU216HW,2013-01-06 18:06:00,
2013-01-06 12:11:00,31.3,23.3,30.08,West,265,6.5,9.9,72,0.00,,,0.00,WUHU216HW,2013-01-06 18:11:00,
2013-01-06 12:16:00,31.3,23.3,30.08,WNW,293,6.1,9.9,72,0.00,,,0.00,WUHU216HW,2013-01-06 18:16:00,
2013-01-06 12:21:00,31.1,23.1,30.08,NNW,327,7.6,13.4,72,0.00,,,0.00,WUHU216HW,2013-01-06 18:21:00,
2013-01-06 12:26:00,31.0,23.0,30.08,NW,315,7.0,13.4,72,0.00,,,0.00,WUHU216HW,2013-01-06 18:26:00,
2013-01-06 12:31:00,31.1,23.1,30.08,NW,315,7.5,7.5,72,0.00,,,0.00,WUHU216HW,2013-01-06 18:31:00,
2013-01-06 12:36:00,31.1,23.5,30.09,NW,315,4.7,7.5,73,0.00,,,0.00,WUHU216HW,2013-01-06 18:36:00,
2013-01-06 12:41:00,31.3,23.7,30.09,NW,315,7.0,8.2,73,0.00,,,0.00,WUHU216HW,2013-01-06 18:41:00,
2013-01-06 12:46:00,31.5,23.9,30.09,NW,317,2.5,8.2,73,0.00,,,0.00,WUHU216HW,2013-01-06 18:46:00,
2013-01-06 12:51:00,31.3,23.3,30.10,West,266,3.7,7.0,72,0.00,,,0.00,WUHU216HW,2013-01-06 18:51:00,
2013-01-06 12:56:00,31.0,23.3,30.10,West,266,3.7,6.1,73,0.00,,,0.00,WUHU216HW,2013-01-06 18:56:00,
2013-01-06 13:01:00,31.0,23.3,30.10,WNW,284,2.8,6.6,73,0.00,,,0.00,WUHU216HW,2013-01-06 19:01:00,
2013-01-06 13:06:00,30.8,23.1,30.10,West,272,3.0,6.6,73,0.00,,,0.00,WUHU216HW,2013-01-06 19:06:00,
2013-01-06 13:11:00,31.0,23.6,30.10,West,270,4.4,6.1,74,0.00,,,0.00,WUHU216HW,2013-01-06 19:11:00,
2013-01-06 13:16:00,31.0,23.6,30.11,WNW,293,2.9,4.4,74,0.00,,,0.00,WUHU216HW,2013-01-06 19:16:00,
2013-01-06 13:21:00,31.0,23.3,30.10,NW,315,7.0,7.0,73,0.00,,,0.00,WUHU216HW,2013-01-06 19:21:00,
2013-01-06 13:26:00,31.0,23.6,30.11,North,8,5.1,8.4,74,0.00,,,0.00,WUHU216HW,2013-01-06 19:26:00,
2013-01-06 13:31:00,31.0,23.6,30.11,WNW,291,3.2,8.4,74,0.00,,,0.00,WUHU216HW,2013-01-06 19:31:00,
2013-01-06 13:36:00,31.1,23.8,30.11,WSW,248,7.0,7.0,74,0.00,,,0.00,WUHU216HW,2013-01-06 19:36:00,
2013-01-06 13:47:00,31.3,24.3,30.12,NW,315,6.1,7.0,75,0.00,,,0.00,WUHU216HW,2013-01-06 19:47:00,
2013-01-06 13:52:00,31.3,24.3,30.12,West,270,3.5,7.0,75,0.00,,,0.00,WUHU216HW,2013-01-06 19:52:00,
2013-01-06 13:57:00,31.3,24.3,30.12,NNW,334,4.9,8.2,75,0.00,,,0.00,WUHU216HW,2013-01-06 19:57:00,
2013-01-06 14:02:00,31.3,24.3,30.13,WSW,248,2.6,8.2,75,0.00,,,0.00,WUHU216HW,2013-01-06 20:02:00,
2013-01-06 14:08:00,31.5,24.5,30.13,WNW,293,2.4,4.9,75,0.00,,,0.00,WUHU216HW,2013-01-06 20:08:00,
2013-01-06 14:11:00,31.7,24.7,30.13,WNW,285,2.7,5.2,75,0.00,,,0.00,WUHU216HW,2013-01-06 20:11:00,
2013-01-06 14:13:00,31.9,24.8,30.13,West,277,3.0,5.2,75,0.00,,,0.00,WUHU216HW,2013-01-06 20:13:00,
2013-01-06 14:18:00,31.9,24.5,30.13,NW,315,4.4,5.2,74,0.00,,,0.00,WUHU216HW,2013-01-06 20:18:00,
2013-01-06 14:23:00,32.0,24.7,30.14,WNW,300,3.1,6.1,74,0.00,,,0.00,WUHU216HW,2013-01-06 20:23:00,
2013-01-06 14:28:00,32.2,24.8,30.14,NW,310,3.7,6.6,74,0.00,,,0.00,WUHU216HW,2013-01-06 20:28:00,
2013-01-06 14:33:00,32.2,24.8,30.14,NW,315,3.3,6.6,74,0.00,,,0.00,WUHU216HW,2013-01-06 20:33:00,
2013-01-06 14:38:00,32.4,24.7,30.15,West,270,4.4,4.7,73,0.00,,,0.00,WUHU216HW,2013-01-06 20:38:00,
2013-01-06 14:43:00,32.6,24.8,30.15,WNW,293,4.4,6.1,73,0.00,,,0.00,WUHU216HW,2013-01-06 20:43:00,
2013-01-06 14:48:00,32.8,25.0,30.15,NW,315,3.3,6.1,73,0.00,,,0.00,WUHU216HW,2013-01-06 20:48:00,
2013-01-06 14:53:00,32.9,24.8,30.15,North,0,4.9,6.1,72,0.00,,,0.00,WUHU216HW,2013-01-06 20:53:00,
2013-01-06 14:58:00,33.1,25.0,30.15,NNW,338,4.9,6.1,72,0.00,,,0.00,WUHU216HW,2013-01-06 20:58:00,
2013-01-06 15:01:00,33.1,24.7,30.15,WNW,292,3.2,6.4,71,0.00,,,0.00,WUHU216HW,2013-01-06 21:01:00,
2013-01-06 15:06:00,33.1,25.0,30.16,WNW,297,3.3,6.4,72,0.00,,,0.00,WUHU216HW,2013-01-06 21:06:00,
2013-01-06 15:11:00,33.3,25.2,30.16,WNW,288,2.8,6.1,72,0.00,,,0.00,WUHU216HW,2013-01-06 21:11:00,
2013-01-06 15:16:00,33.3,25.2,30.17,West,270,4.4,6.4,72,0.00,,,0.00,WUHU216HW,2013-01-06 21:16:00,
2013-01-06 15:21:00,33.5,25.7,30.17,WNW,295,2.3,6.4,73,0.00,,,0.00,WUHU216HW,2013-01-06 21:21:00,
2013-01-06 15:26:00,33.5,25.4,30.17,WNW,298,4.4,6.1,72,0.00,,,0.00,WUHU216HW,2013-01-06 21:26:00,
2013-01-06 15:31:00,33.5,25.4,30.18,NNW,327,5.5,10.5,72,0.00,,,0.00,WUHU216HW,2013-01-06 21:31:00,
2013-01-06 15:36:00,33.5,25.4,30.18,NW,308,2.2,10.5,72,0.00,,,0.00,WUHU216HW,2013-01-06 21:36:00,
2013-01-06 15:41:00,33.5,25.7,30.18,NW,310,4.2,7.0,73,0.00,,,0.00,WUHU216HW,2013-01-06 21:41:00,
2013-01-06 15:46:00,33.5,25.7,30.18,WNW,293,4.0,8.2,73,0.00,,,0.00,WUHU216HW,2013-01-06 21:46:00,
2013-01-06 15:51:00,33.3,25.5,30.18,WSW,248,3.1,8.2,73,0.00,,,0.00,WUHU216HW,2013-01-06 21:51:00,
2013-01-06 15:56:00,33.3,25.5,30.19,NW,315,1.4,4.7,73,0.00,,,0.00,WUHU216HW,2013-01-06 21:56:00,
2013-01-06 16:01:00,33.3,25.5,30.19,WNW,293,1.7,1.7,73,0.00,,,0.00,WUHU216HW,2013-01-06 22:01:00,
2013-01-06 16:06:00,33.3,25.5,30.20,NNW,348,1.9,6.6,73,0.00,,,0.00,WUHU216HW,2013-01-06 22:06:00,
2013-01-06 16:11:00,33.3,25.5,30.20,NW,312,2.8,6.6,73,0.00,,,0.00,WUHU216HW,2013-01-06 22:11:00,
2013-01-06 16:16:00,33.3,25.5,30.20,WNW,293,1.2,5.8,73,0.00,,,0.00,WUHU216HW,2013-01-06 22:16:00,
2013-01-06 16:21:00,33.3,25.5,30.20,NW,315,3.3,6.1,73,0.00,,,0.00,WUHU216HW,2013-01-06 22:21:00,
2013-01-06 16:26:00,33.3,25.5,30.20,NW,315,3.8,6.1,73,0.00,,,0.00,WUHU216HW,2013-01-06 22:26:00,
2013-01-06 16:31:00,33.3,25.5,30.21,WNW,298,3.6,7.0,73,0.00,,,0.00,WUHU216HW,2013-01-06 22:31:00,
2013-01-06 16:36:00,33.3,25.5,30.20,WNW,301,2.9,7.0,73,0.00,,,0.00,WUHU216HW,2013-01-06 22:36:00,
2013-01-06 16:41:00,33.1,25.4,30.21,WNW,301,2.8,5.6,73,0.00,,,0.00,WUHU216HW,2013-01-06 22:41:00,
2013-01-06 16:46:00,33.1,25.4,30.21,West,270,1.2,5.6,73,0.00,,,0.00,WUHU216HW,2013-01-06 22:46:00,
2013-01-06 16:51:00,33.1,25.4,30.22,NW,315,2.1,4.4,73,0.00,,,0.00,WUHU216HW,2013-01-06 22:51:00,
2013-01-06 16:56:00,33.1,25.4,30.22,WNW,295,1.0,4.4,73,0.00,,,0.00,WUHU216HW,2013-01-06 22:56:00,
2013-01-06 17:01:00,33.1,25.7,30.22,NW,313,1.0,2.3,74,0.00,,,0.00,WUHU216HW,2013-01-06 23:01:00,
2013-01-06 17:06:00,33.1,25.7,30.22,NW,315,2.1,2.9,74,0.00,,,0.00,WUHU216HW,2013-01-06 23:06:00,
2013-01-06 17:11:00,33.1,25.7,30.22,NW,315,3.3,3.3,74,0.00,,,0.00,WUHU216HW,2013-01-06 23:11:00,
2013-01-06 17:16:00,33.1,26.0,30.23,NW,308,1.5,3.3,75,0.00,,,0.00,WUHU216HW,2013-01-06 23:16:00,
2013-01-06 17:21:00,32.9,25.8,30.23,West,270,1.2,3.3,75,0.00,,,0.00,WUHU216HW,2013-01-06 23:21:00,
2013-01-06 17:26:00,33.1,26.0,30.23,West,265,1.2,3.5,75,0.00,,,0.00,WUHU216HW,2013-01-06 23:26:00,
2013-01-06 17:31:00,32.9,25.8,30.23,NW,312,3.0,4.7,75,0.00,,,0.00,WUHU216HW,2013-01-06 23:31:00,
2013-01-06 17:36:00,32.9,25.8,30.24,West,270,1.7,4.7,75,0.00,,,0.00,WUHU216HW,2013-01-06 23:36:00,
2013-01-06 17:41:00,32.9,25.8,30.24,NW,315,1.4,2.3,75,0.00,,,0.00,WUHU216HW,2013-01-06 23:41:00,
2013-01-06 17:46:00,32.9,25.8,30.25,West,279,1.5,4.4,75,0.00,,,0.00,WUHU216HW,2013-01-06 23:46:00,
2013-01-06 17:51:00,32.9,25.8,30.25,West,269,2.1,4.4,75,0.00,,,0.00,WUHU216HW,2013-01-06 23:51:00,
2013-01-06 17:56:00,32.9,25.8,30.26,West,275,1.5,3.3,75,0.00,,,0.00,WUHU216HW,2013-01-06 23:56:00,
2013-01-06 18:01:00,32.9,25.8,30.26,West,270,2.9,5.2,75,0.00,,,0.00,WUHU216HW,2013-01-07 00:01:00,
2013-01-06 18:06:00,32.9,25.8,30.27,West,270,2.3,5.2,75,0.00,,,0.00,WUHU216HW,2013-01-07 00:06:00,
2013-01-06 18:11:00,32.9,25.5,30.27,West,270,2.6,5.2,74,0.00,,,0.00,WUHU216HW,2013-01-07 00:11:00,
2013-01-06 18:16:00,32.8,25.4,30.27,WSW,255,2.8,5.6,74,0.00,,,0.00,WUHU216HW,2013-01-07 00:16:00,
2013-01-06 18:21:00,32.8,25.4,30.27,WSW,254,4.0,5.6,74,0.00,,,0.00,WUHU216HW,2013-01-07 00:21:00,
2013-01-06 18:26:00,32.8,25.4,30.27,WNW,283,2.1,5.2,74,0.00,,,0.00,WUHU216HW,2013-01-07 00:26:00,
2013-01-06 18:31:00,32.6,25.2,30.28,WSW,254,2.5,5.8,74,0.00,,,0.00,WUHU216HW,2013-01-07 00:31:00,
2013-01-06 18:36:00,32.4,25.0,30.28,West,273,3.7,6.1,74,0.00,,,0.00,WUHU216HW,2013-01-07 00:36:00,
2013-01-06 18:41:00,32.4,25.0,30.28,West,270,3.8,6.1,74,0.00,,,0.00,WUHU216HW,2013-01-07 00:41:00,
2013-01-06 18:46:00,32.2,24.8,30.28,WSW,248,4.0,8.2,74,0.00,,,0.00,WUHU216HW,2013-01-07 00:46:00,
2013-01-06 18:51:00,32.0,24.7,30.28,West,270,6.4,8.2,74,0.00,,,0.00,WUHU216HW,2013-01-07 00:51:00,
2013-01-06 18:56:00,31.9,24.5,30.28,WSW,255,4.1,6.6,74,0.00,,,0.00,WUHU216HW,2013-01-07 00:56:00,
2013-01-06 19:01:00,31.9,24.8,30.28,West,270,1.7,6.4,75,0.00,,,0.00,WUHU216HW,2013-01-07 01:01:00,
2013-01-06 19:06:00,31.7,24.7,30.29,West,267,2.5,5.6,75,0.00,,,0.00,WUHU216HW,2013-01-07 01:06:00,
2013-01-06 19:11:00,31.5,24.5,30.29,West,280,1.9,4.9,75,0.00,,,0.00,WUHU216HW,2013-01-07 01:11:00,
2013-01-06 19:16:00,31.3,24.3,30.30,West,262,0.8,5.2,75,0.00,,,0.00,WUHU216HW,2013-01-07 01:16:00,
2013-01-06 19:21:00,31.3,24.7,30.30,WSW,238,3.5,6.1,76,0.00,,,0.00,WUHU216HW,2013-01-07 01:21:00,
2013-01-06 19:26:00,31.1,24.5,30.30,West,266,4.2,7.0,76,0.00,,,0.00,WUHU216HW,2013-01-07 01:26:00,
2013-01-06 19:31:00,30.8,24.1,30.30,West,270,5.8,7.0,76,0.00,,,0.00,WUHU216HW,2013-01-07 01:31:00,
2013-01-06 19:36:00,30.8,24.1,30.30,West,270,3.5,5.8,76,0.00,,,0.00,WUHU216HW,2013-01-07 01:36:00,
2013-01-06 19:41:00,30.6,24.0,30.30,SW,225,4.4,7.3,76,0.00,,,0.00,WUHU216HW,2013-01-07 01:41:00,
2013-01-06 19:47:00,30.6,24.0,30.30,WSW,248,1.3,7.3,76,0.00,,,0.00,WUHU216HW,2013-01-07 01:47:00,
2013-01-06 19:51:00,30.6,24.0,30.30,WSW,256,1.4,4.7,76,0.00,,,0.00,WUHU216HW,2013-01-07 01:51:00,
2013-01-06 19:57:00,30.4,23.8,30.30,West,270,3.8,6.1,76,0.00,,,0.00,WUHU216HW,2013-01-07 01:57:00,
2013-01-06 20:02:00,30.2,23.9,30.30,WSW,237,0.8,6.1,77,0.00,,,0.00,WUHU216HW,2013-01-07 02:02:00,
2013-01-06 20:07:00,30.2,23.9,30.30,West,270,4.4,4.4,77,0.00,,,0.00,WUHU216HW,2013-01-07 02:07:00,
2013-01-06 20:12:00,30.1,23.7,30.30,WNW,293,2.3,4.4,77,0.00,,,0.00,WUHU216HW,2013-01-07 02:12:00,
2013-01-06 20:17:00,30.1,23.7,30.31,West,273,1.6,4.4,77,0.00,,,0.00,WUHU216HW,2013-01-07 02:17:00,
2013-01-06 20:22:00,29.9,23.5,30.32,West,263,2.6,4.4,77,0.00,,,0.00,WUHU216HW,2013-01-07 02:22:00,
2013-01-06 20:27:00,29.9,23.5,30.32,WNW,293,3.3,4.7,77,0.00,,,0.00,WUHU216HW,2013-01-07 02:27:00,
2013-01-06 20:32:00,29.9,23.2,30.32,WSW,248,3.0,5.2,76,0.00,,,0.00,WUHU216HW,2013-01-07 02:32:00,
2013-01-06 20:37:00,29.9,23.2,30.32,West,270,4.4,5.2,76,0.00,,,0.00,WUHU216HW,2013-01-07 02:37:00,
2013-01-06 20:42:00,29.7,23.1,30.32,West,270,4.4,4.7,76,0.00,,,0.00,WUHU216HW,2013-01-07 02:42:00,
2013-01-06 20:47:00,29.7,23.3,30.32,WSW,250,0.8,4.4,77,0.00,,,0.00,WUHU216HW,2013-01-07 02:47:00,
2013-01-06 20:51:00,29.7,23.1,30.32,WSW,248,1.1,4.4,76,0.00,,,0.00,WUHU216HW,2013-01-07 02:51:00,
2013-01-06 20:56:00,29.5,23.1,30.32,WSW,248,0.9,4.4,77,0.00,,,0.00,WUHU216HW,2013-01-07 02:56:00,
2013-01-06 21:01:00,29.3,23.0,30.31,West,270,2.3,4.4,77,0.00,,,0.00,WUHU216HW,2013-01-07 03:01:00,
2013-01-06 21:06:00,29.2,22.9,30.32,SW,225,1.4,2.3,77,0.00,,,0.00,WUHU216HW,2013-01-07 03:06:00,
2013-01-06 21:12:00,29.2,22.9,30.32,WSW,243,0.8,2.3,77,0.00,,,0.00,WUHU216HW,2013-01-07 03:12:00,
2013-01-06 21:16:00,29.0,22.7,30.32,WSW,253,2.0,3.8,77,0.00,,,0.00,WUHU216HW,2013-01-07 03:16:00,
2013-01-06 21:21:00,28.8,22.5,30.32,WSW,248,2.1,4.4,77,0.00,,,0.00,WUHU216HW,2013-01-07 03:21:00,
2013-01-06 21:26:00,28.6,22.3,30.32,West,270,1.1,4.4,77,0.00,,,0.00,WUHU216HW,2013-01-07 03:26:00,
2013-01-06 21:31:00,28.4,22.2,30.32,WSW,248,0.6,4.0,77,0.00,,,0.00,WUHU216HW,2013-01-07 03:31:00,
2013-01-06 21:36:00,28.3,22.0,30.32,WSW,248,0.0,1.4,77,0.00,,,0.00,WUHU216HW,2013-01-07 03:36:00,
2013-01-06 21:41:00,28.1,21.8,30.32,SW,225,0.0,0.0,77,0.00,,,0.00,WUHU216HW,2013-01-07 03:41:00,
2013-01-06 21:46:00,27.9,21.6,30.32,SSW,203,0.0,0.0,77,0.00,,,0.00,WUHU216HW,2013-01-07 03:46:00,
2013-01-06 21:51:00,27.7,21.4,30.32,SSW,203,0.7,0.9,77,0.00,,,0.00,WUHU216HW,2013-01-07 03:51:00,
2013-01-06 21:56:00,27.7,21.4,30.32,SSW,203,0.5,0.9,77,0.00,,,0.00,WUHU216HW,2013-01-07 03:56:00,
2013-01-06 22:01:00,27.4,21.3,30.31,SE,135,1.4,1.4,78,0.00,,,0.00,WUHU216HW,2013-01-07 04:01:00,
2013-01-06 22:06:00,27.2,21.2,30.31,South,172,1.7,2.9,78,0.00,,,0.00,WUHU216HW,2013-01-07 04:06:00,
2013-01-06 22:11:00,27.0,21.0,30.32,SSW,203,0.3,2.9,78,0.00,,,0.00,WUHU216HW,2013-01-07 04:11:00,
2013-01-06 22:16:00,26.8,20.8,30.32,SSW,203,0.0,1.4,78,0.00,,,0.00,WUHU216HW,2013-01-07 04:16:00,
2013-01-06 22:21:00,26.5,20.8,30.33,SSW,203,0.0,0.5,79,0.00,,,0.00,WUHU216HW,2013-01-07 04:21:00,
2013-01-06 22:26:00,26.3,20.6,30.33,SSW,203,0.0,0.0,79,0.00,,,0.00,WUHU216HW,2013-01-07 04:26:00,
2013-01-06 22:31:00,26.3,20.6,30.33,SSW,203,0.0,0.0,79,0.00,,,0.00,WUHU216HW,2013-01-07 04:31:00,
2013-01-06 22:36:00,26.1,20.4,30.33,SSW,203,0.7,1.4,79,0.00,,,0.00,WUHU216HW,2013-01-07 04:36:00,
2013-01-06 22:41:00,25.9,20.3,30.33,SSW,210,0.4,1.4,79,0.00,,,0.00,WUHU216HW,2013-01-07 04:41:00,
2013-01-06 22:47:00,25.7,20.1,30.34,WSW,248,0.8,0.9,79,0.00,,,0.00,WUHU216HW,2013-01-07 04:47:00,
2013-01-06 22:51:00,25.6,20.3,30.33,WSW,248,0.0,0.9,80,0.00,,,0.00,WUHU216HW,2013-01-07 04:51:00,
2013-01-06 22:56:00,25.6,20.3,30.33,SW,225,0.0,0.5,80,0.00,,,0.00,WUHU216HW,2013-01-07 04:56:00,
2013-01-06 23:00:00,25.4,20.1,30.34,SW,225,0.5,0.5,80,0.00,,,0.00,WUHU216HW,2013-01-07 05:00:00,
2013-01-06 23:01:00,25.4,20.1,30.33,SSW,203,0.3,0.5,80,0.00,,,0.00,WUHU216HW,2013-01-07 05:01:00,
2013-01-06 23:02:00,25.4,20.1,30.33,SSW,203,0.9,0.9,80,0.00,,,0.00,WUHU216HW,2013-01-07 05:02:00,
2013-01-06 23:07:00,25.2,20.0,30.33,SSW,203,0.0,0.9,80,0.00,,,0.00,WUHU216HW,2013-01-07 05:07:00,
2013-01-06 23:12:00,25.0,19.8,30.33,SSW,203,0.5,0.9,80,0.00,,,0.00,WUHU216HW,2013-01-07 05:12:00,
2013-01-06 23:17:00,24.8,19.6,30.33,SSW,203,0.4,1.2,80,0.00,,,0.00,WUHU216HW,2013-01-07 05:17:00,
2013-01-06 23:22:00,24.8,19.9,30.33,SSW,203,0.0,1.2,81,0.00,,,0.00,WUHU216HW,2013-01-07 05:22:00,
2013-01-06 23:27:00,24.7,19.4,30.33,SSW,203,0.0,0.0,80,0.00,,,0.00,WUHU216HW,2013-01-07 05:27:00,
2013-01-06 23:32:00,24.5,19.3,30.33,South,184,0.6,1.2,80,0.00,,,0.00,WUHU216HW,2013-01-07 05:32:00,
2013-01-06 23:37:00,24.3,19.1,30.33,SSW,203,1.0,1.2,80,0.00,,,0.00,WUHU216HW,2013-01-07 05:37:00,
2013-01-06 23:42:00,24.1,18.9,30.33,SSW,203,0.9,1.2,80,0.00,,,0.00,WUHU216HW,2013-01-07 05:42:00,
2013-01-06 23:47:00,24.1,18.9,30.33,SSW,203,0.9,1.2,80,0.00,,,0.00,WUHU216HW,2013-01-07 05:47:00,
2013-01-06 23:52:00,23.8,18.8,30.33,SSW,203,0.0,0.9,81,0.00,,,0.00,WUHU216HW,2013-01-07 05:52:00,
2013-01-06 23:57:00,23.8,18.8,30.33,SSW,203,0.0,0.9,81,0.00,,,0.00,WUHU216HW,2013-01-07 05:57:00,